SCOUT A R/B, 2811

Orbit data source: Space-Track

SCOUT A R/B, 2811 is space debris in LEO originally from a launch on Thu, 18 May 1967 UTC launched from the Air Force Western Test Range (AFWTR). Debris objects in space refer to the collection of defunct objects orbiting the Earth. Examples of debris include non-operational satellites, rocket bodies, and fragments generated from explosions, collisions, or faulty payload assembly.

Loading next visibility...
Identifier
2811, 1967-048B
Orbit
LEO
Last TLE update
15 hours ago
Origin
Manufacturer
ABL
Mission
Spacecraft
Bus & Motor
ALTAIR, Unknown motor
Mass
33 kg wet, 33 kg dry
Launch date (UTC)
1967-05-18 (58 years ago)
Launch vehicle
Unknown
Launch site
Air Force Western Test Range (AFWTR)
Object type
Payload
Rocket body
Debris
Shape & HBR
Cyl, 1.5 m
Radar Cross Section
0.687 m², Medium (>0.1 m² and < 1m²)

Expand to show TLE details & history

TLE from 15 hours ago
0 SCOUT A R/B
1 02811U 67048B   25128.71327498  .00000086  00000-0  12027-3 0  9995
2 02811  89.6810   3.9705 0021497  86.2893 340.2491 13.49271899851964
Epoch: 2025-05-08T17:07Z
Definitive object data (Epoch: 2025-05-08T17:07:06.958Z)
Latitude
66.5316°
Longitude
-118.85731°
Altitude
1,071.451 km
Speed
7.33 km/s
True Right ascension
00h 18m 48s
True Declination
66° 24' 40"
Sunlit
Object was in daylight at TLE epoch
Visualization TLE readout
Latitude
59.28043°
Longitude
59.85818°
Altitude
1,072.136 km
Speed
7.328 km/s
Apparent Right ascension
07h 04m 14s
Apparent Declination
29° 53' 18"
Sunlit
Object is in daylight
Visualization observer readout
Local Sidereal Time
15:46:30
Azimuth
318.481° NNW
Elevation
-6.47°
Doppler factor
1
Orbital elements
Apogee altitude
1,088.005 km
Perigee altitude
1,055.974 km
Semi-major axis
7,450.127 km
Eccentricity
0.0021497
Inclination
89.681°
RAAN
3.9705°
Arg. of periapsis
86.2893°
True anomaly
340.16564°
Mean anomaly
340.2491°
Eccentric anomaly
340.20739°
Mean motion
3.37519 °/min
BSTAR
0.00012027
Orbital period
106.66 mins
Loading maneuver chart data...
Loading SW <> Apogee altitude chart data...
Loading historical data...
Loading historical data...
Loading historical data...
Loading historical data...
Loading historical data...
Loading historical data...
Loading historical data...

SCOUT A R/B Visibility forecast

Observer location: undefined°, undefined°

Span
Click to sort rows by Start time (UTC) header in descending order
Start Az.
Max El. time (UTC)
Max El. Az.
Max El.
End time (UTC)
End Az.
5 mins2025-05-09 14:19:28.359Z92.791° ESE2025-05-09 14:21:28.359Z74.072° E13.362°2025-05-09 14:24:28.359Z45.574° ENE
11 mins2025-05-09 16:02:28.359Z177.319° S2025-05-09 16:07:28.359Z238.85° WSW44.987°2025-05-09 16:13:28.359Z357.854° N
4 mins2025-05-09 17:53:28.359Z271.046° WNW2025-05-09 17:54:28.359Z280.452° WNW12.339°2025-05-09 17:57:28.359Z308.32° NW
10 mins2025-05-10 03:13:28.359Z24.672° NE2025-05-10 03:17:28.359Z78.195° E33.492°2025-05-10 03:23:28.359Z153.23° SSE
9 mins2025-05-10 05:00:28.359Z329.519° NNW2025-05-10 05:04:28.359Z277.472° WNW26.921°2025-05-10 05:09:28.359Z225.74° WSW
|